Printer-friendly version
Follow the MPC on Twitter Follow the MPC on Facebook The MPC blog
Minor Planet Center

MPEC 2010-P07 : 2010 OA101

The following Minor Planet Electronic Circular may be linked-to from your own Web pages, but must not otherwise be redistributed electronically.

A form allowing access to any MPEC is at the bottom of this page.


Read MPEC 2010-P06 Read MPEC 2010-P08


M.P.E.C. 2010-P07                                Issued 2010 Aug. 3, 12:07 UT

     The Minor Planet Electronic Circulars contain information on unusual
         minor planets and routine data on comets.  They are published
   on behalf of Commission 20 of the International Astronomical Union by the
          Minor Planet Center, Smithsonian Astrophysical Observatory,
                          Cambridge, MA 02138, U.S.A.

             Prepared using the Tamkin Foundation Computer Network

                              MPC@CFA.HARVARD.EDU
       URL http://www.minorplanetcenter.org/iau/mpc.html  ISSN 1523-6714

                                  2010 OA101

Observations:
     K10OA1A* S2010 07 17.08024 00 48 25.86 +32 59 48.8          20   R EP007C51
     K10OA1A  s2010 07 17.08024 1 + 5034.6353 + 2576.5009 + 3955.9027   EP007C51
     K10OA1A  S2010 07 17.21254 00 48 34.99 +32 56 17.9                 EP007C51
     K10OA1A  s2010 07 17.21254 1 + 5028.5355 + 2587.9860 + 3956.2532   EP007C51
     K10OA1A  S2010 07 17.34485 00 48 44.07 +32 52 44.4                 EP007C51
     K10OA1A  s2010 07 17.34485 1 + 5022.7221 + 2599.3654 + 3955.9393   EP007C51
     K10OA1A  S2010 07 17.47715 00 48 53.15 +32 49 10.3                 EP007C51
     K10OA1A  s2010 07 17.47715 1 + 5016.4446 + 2610.4365 + 3956.7014   EP007C51
     K10OA1A  S2010 07 17.54336 00 48 57.69 +32 47 22.4                 EP007C51
     K10OA1A  s2010 07 17.54336 1 + 5036.8558 + 2620.9985 + 3923.8787   EP007C51
     K10OA1A  S2010 07 17.60945 00 49 02.20 +32 45 35.0                 EP007C51
     K10OA1A  s2010 07 17.60945 1 + 5009.5488 + 2621.6323 + 3958.0769   EP007C51
     K10OA1A  S2010 07 17.67567 00 49 06.74 +32 43 45.8                 EP007C51
     K10OA1A  s2010 07 17.67567 1 + 5030.4544 + 2632.4547 + 3924.1623   EP007C51
     K10OA1A  S2010 07 17.74176 00 49 11.27 +32 41 57.6                 EP007C51
     K10OA1A  s2010 07 17.74176 1 + 5003.5480 + 2633.1566 + 3957.6327   EP007C51
     K10OA1A  S2010 07 17.80797 00 49 15.80 +32 40 09.1                 EP007C51
     K10OA1A  s2010 07 17.80797 1 + 5024.8098 + 2643.9894 + 3923.3047   EP007C51
     K10OA1A  S2010 07 17.87406 00 49 20.33 +32 38 19.5                 EP007C51
     K10OA1A  s2010 07 17.87406 1 + 4997.9477 + 2644.4004 + 3957.1880   EP007C51
     K10OA1A  S2010 07 17.94028 00 49 24.85 +32 36 29.6                 EP007C51
     K10OA1A  s2010 07 17.94028 1 + 5018.7979 + 2655.2964 + 3923.6916   EP007C51
     K10OA1A KC2010 07 22.40146 00 54 22.36 +30 18 04.5          20.1 C EP007H36
     K10OA1A KC2010 07 22.41830 00 54 23.33 +30 17 29.4          20.4 C EP007H36
     K10OA1A  C2010 07 23.28426600 55 19.48 +29 46 44.2          20.6 V EP007H21
     K10OA1A  C2010 07 23.30004000 55 20.53 +29 46 11.1          20.9 V EP007H21
     K10OA1A  C2010 07 23.31540500 55 21.49 +29 45 37.0          21.4 V EP007H21
     K10OA1A MC2010 07 23.40535 00 55 27.17 +29 42 22.2          20.2 C EP007H36
     K10OA1A MC2010 07 23.41798 00 55 27.78 +29 41 53.5          20.5 C EP007H36
     K10OA1A tC2010 08 03.35474 01 06 16.68 +20 39 19.0          20.5 V EP007291
     K10OA1A tC2010 08 03.35926 01 06 16.90 +20 39 00.7          20.8 V EP007291
     K10OA1A tC2010 08 03.36389 01 06 17.11 +20 38 41.1          20.5 V EP007291
     K10OA1A KC2010 08 03.41173 01 06 19.59 +20 35 32.5          20.5 C EP007H36
     K10OA1A KC2010 08 03.42261 01 06 19.93 +20 34 48.9          20.1 C EP007H36

Observer details:
291 LPL/Spacewatch II.  Observer R. S. McMillan.  1.8-m f/2.7 reflector + CCD.
C51 WISE.  Measurers A. K. Mainzer, E. L. Wright, J. M. Bauer, T. Grav,
    J. W. Dailey, J. R. Masiero, R. M. Cutri, R. S. McMillan, R. G. Walker.
    (http://wise.ssl.berkeley.edu/mission_sci.html).
H21 Astronomical Research Observatory, Westfield.  Observer R. Holmes.
    Measurer S. Foglia.
H36 Sandlot Observatory, Scranton.  Observer G. Hug.  0.56-m reflector + CCD.

Orbital elements:
2010 OA101
Epoch 2010 July 23.0 TT = JDT 2455400.5                 MPC
M 355.32589              (2000.0)            P               Q
n   0.10729886     Peri.  198.01169     +0.91025333     -0.26258227
a   4.3860406      Node   161.23364     -0.13179445     +0.54922804
e   0.6844510      Incl.   84.33682     -0.39251636     -0.79334678
P   9.19           H   18.5           G   0.15           U   7
Residuals in seconds of arc
100717 C51  0.1-  0.0     100717 C51  0.0   0.4+    100723 H36  1.4+  0.4+
100717 C51  0.2+  0.5+    100717 C51  0.2+  0.1+    100723 H36  0.7-  0.7-
100717 C51  0.0   0.2-    100717 C51  0.1+  0.1+    100803 291  0.2+  0.7+
100717 C51  0.0   0.1-    100722 H36  0.5+  0.5+    100803 291  0.0   0.3+
100717 C51  0.0   0.3-    100722 H36  0.5-  0.2+    100803 291  0.3-  1.1-
100717 C51  0.2-  0.2+    100723 H21  0.8-  0.4-    100803 H36 (3.4+  0.7+)
100717 C51  0.2-  0.6-    100723 H21  0.1+  0.5+    100803 H36  0.5+  0.3+
100717 C51  0.1-  0.2-    100723 H21  0.1+  0.4-

Ephemeris:
2010 OA101               a,e,i = 4.39, 0.68, 84                  q = 1.3840
Date    TT    R. A. (2000) Decl.     Delta      r     Elong.  Phase     V
2010 08 02    01 05.03   +22 05.6    0.789    1.442   105.4    42.7    20.4
2010 08 12    01 13.25   +08 22.3    0.609    1.413   119.0    38.9    19.7
2010 08 22    01 18.74   -14 38.6    0.494    1.394   132.4    32.4    19.1
2010 09 01    01 19.63   -43 24.8    0.496    1.385   130.7    33.6    19.1
2010 09 11    01 10.99   -65 36.6    0.610    1.386   115.8    40.8    19.7
2010 09 21    00 38.76   -78 18.7    0.782    1.398   102.3    44.6    20.4
2010 10 01    22 58.77   -84 33.3    0.972    1.420    92.0    44.8    20.9
2010 10 11    19 54.76   -85 54.0    1.162    1.452    84.1    43.2    21.3
2010 10 21    18 18.87   -85 03.6    1.342    1.492    77.8    40.7    21.6
2010 10 31    17 56.10   -84 22.6    1.506    1.539    72.8    38.0    21.9

Timothy B. Spahr             (C) Copyright 2010 MPC           M.P.E.C. 2010-P07

Read MPEC 2010-P06 Read MPEC 2010-P08


MPEC number:

Enter an MPEC number in one of the following forms:

  • 1997-B01 (the full form)
  • J97B01 (the packed version of the full form)
  • B01 (the abbreviated form)

Valid HTML 4.01!